CAPE
1 1 0 0 2 0 0 0 0 0 0 0 0 0 0 0 0 0 0 0 0 0
4 0 0 0 0 0 0 0 0 0 0 0 0 0 0 0 0 0 0 0 0 0
0 0 0 0 0 0 0 0 0 0 0 0 0 0 0 0 0 0 0 0 0 0
0 0 0 0 0 0 0 0 0 0 0 0 0 0 0 0 0 0 0 0 0 0
0 0 0 0 0 0 0 0 0 0 0 0 0 0 0 0 0 0 0 0 0 0
0 0 0 0 0 0 0 0 0 0 0 0 0 0 0 0 0 0 0 0 0 0
0 0 0 0 0 0 0 0 0 0 0 0 0 0 0 0 0 0 0 0 0 0
0 0 0 0 0 0 0 0 0 0 0 0 0 0 0 0 0 0 0 0 0 0
0 0 0 0 0 0 0 0 0 0 0 0 0 0 0 0 0 0 0 0 0 0
0 0 0 0 0 0 0 0 0 0 0 0 0 0 0 0 0 0 0 0 0 0
0 0 0 0 0 0 0 0 0 0 0 0 0 0 0 0 0 0 0 0 0 0
0 0 0 0 0 0 0 0 0 0 0 0 0 0 0 0 0 0 0 0 0 0
0 0 0 0 0 0 0 0 0 0 0 0 0 0 0 0 0 0 0 0 0 0
0 0 0 0 0 0 0 0 0 0 0 0 0 0 0 0 0 0 0 0 0 0
CIN
0 0 0 0 -103 0 0 0 0 0 0 0 0 0 0 0 0 0 0 0 0 0
0 0 0 0 0 0 0 0 0 0 0 0 0 0 0 0 0 0 0 0 0 0
0 0 0 0 0 0 0 0 0 0 0 0 0 0 0 0 0 0 0 0 0 0
0 0 0 0 0 0 0 0 0 0 0 0 0 0 0 0 0 0 0 0 0 0
0 0 0 0 0 0 0 0 0 0 0 0 0 0 0 0 0 0 0 0 0 0
0 0 0 0 0 0 0 0 0 0 0 0 0 0 0 0 0 0 0 0 0 0
0 0 0 0 0 0 0 0 0 0 0 0 0 0 0 0 0 0 0 0 0 0
0 0 0 0 0 0 0 0 0 0 0 0 0 0 0 0 0 0 0 0 0 0
0 0 0 0 0 0 0 0 0 0 0 0 0 0 0 0 0 0 0 0 0 0
0 0 0 0 0 0 0 0 0 0 0 0 0 0 0 0 0 0 0 0 0 0
0 0 0 0 0 0 0 0 0 0 0 0 0 0 0 0 0 0 0 0 0 0
0 0 0 0 0 0 0 0 0 0 0 0 0 0 0 0 0 0 0 0 0 0
0 0 0 0 0 0 0 0 0 0 0 0 0 0 0 0 0 0 0 0 0 0
0 0 0 0 0 0 0 0 0 0 0 0 0 0 0 0 0 0 0 0 0 0
Wind_Speed
19 19 19 17 15 14 13 12 10 10 10 10 9 8 9 10 11 13 15 16 19 21
22 21 20 18 17 15 12 10 10 9 9 8 7 7 7 8 10 12 15 17 19 22
24 22 20 18 17 15 12 10 9 9 7 6 5 5 6 9 11 13 15 17 19 22
24 23 21 19 16 15 12 10 10 8 6 4 3 4 6 9 10 13 15 18 19 21
23 20 20 18 16 14 13 11 9 8 6 5 5 5 6 8 11 14 16 17 19 21
21 19 19 17 15 14 12 10 9 7 7 6 5 6 8 10 12 14 15 16 18 20
19 18 17 15 14 13 12 10 9 8 7 6 6 7 9 10 12 14 15 16 17 20
18 16 15 14 14 12 12 10 9 8 7 7 7 9 10 12 12 13 14 16 17 20
15 13 13 12 12 11 10 9 9 9 9 9 10 10 10 11 13 13 14 16 18 18
16 15 14 13 13 12 11 10 10 10 10 10 11 10 11 12 13 13 15 16 18 18
14 14 13 14 14 13 12 12 12 12 13 13 13 12 13 13 13 15 16 16 17 18
16 15 15 16 15 14 14 14 15 15 14 14 14 13 13 13 15 16 16 18 17 18
18 18 18 18 18 17 17 17 16 15 15 14 14 14 14 14 15 16 19 19 19 18
20 20 20 19 19 18 18 17 17 16 16 16 16 15 15 14 15 19 20 20 20 20
Wind_Direction
264 268 270 267 267 272 282 293 306 310 314 320 328 335 342 349 356 359 356 355 354 354
271 269 269 269 269 271 275 285 297 301 307 315 322 332 346 354 352 355 354 353 353 353
273 270 268 264 261 259 264 272 286 292 296 303 314 332 344 345 348 349 349 350 352 355
271 271 269 261 257 249 261 260 280 279 277 271 288 320 332 340 343 343 346 349 353 355
272 267 264 259 252 241 253 263 272 266 259 268 288 310 324 331 336 338 342 349 352 353
273 268 262 255 248 242 247 251 263 244 246 259 280 302 318 326 332 338 343 349 350 350
270 266 260 252 236 241 239 249 242 239 243 260 282 300 313 322 330 337 343 348 349 350
270 266 257 248 243 242 242 247 229 233 251 269 285 298 307 318 327 334 340 343 345 348
266 260 250 242 236 235 239 232 229 242 254 270 285 295 305 317 322 329 334 336 340 347
265 257 247 240 235 236 233 229 236 247 260 273 286 293 301 308 316 322 327 331 338 341
258 251 244 238 237 236 236 238 245 257 268 276 285 290 298 305 312 316 323 329 335 335
251 247 242 239 238 240 244 251 258 264 268 275 283 286 294 300 308 314 321 327 328 331
253 246 241 240 241 250 252 256 260 264 270 275 279 283 290 297 306 311 318 320 321 323
255 251 249 248 251 250 255 259 262 265 272 277 281 286 288 291 302 309 312 311 315 320